FW7092 Weather Reports


Display with metric or nautical units.
time (UTC)temp
F
wind
direction
speed
MPH
gust
MPH
rain 1hr
in
rain 24hr
in
rain mn
in
humidity
%
barometer
mb
20260904160218 72 268 0.0 2.0 0.00 1.15 1.15 96 1019.8
20260904155717 72 233 0.0 0.0 0.00 1.15 1.15 95 1020.0
20260904155217 72 248 0.0 1.0 0.00 1.15 1.15 95 1019.2
20260904154716 72 81 1.0 3.0 0.00 1.15 1.15 95 1019.3
20260904154210 72 84 2.0 3.0 0.00 1.15 1.15 95 1019.2
20260904153706 72 171 0.0 3.0 0.00 1.15 1.15 95 1019.1
20260904153201 72 65 1.0 3.0 0.00 1.15 1.15 95 1019.1
20260904152658 72 157 2.0 5.0 0.00 1.15 1.15 95 1018.9
20260904152153 72 75 2.0 5.0 0.00 1.15 1.15 96 1018.9
20260904151648 72 83 4.0 8.0 0.00 1.15 1.15 96 1018.9
20260904151146 71 103 3.0 8.0 0.00 1.15 1.15 97 1019.0
20260904150642 71 94 4.0 7.0 0.00 1.15 1.15 98 1019.0
20260904150138 71 105 4.0 7.0 0.00 1.15 1.15 99 1019.2
20260904145637 71 28 1.0 3.0 0.00 1.15 1.15 99 1019.2
20260904145131 71 347 0.0 3.0 0.00 1.15 1.15 99 1019.5
20260904144627 71 348 1.0 2.0 0.00 1.15 1.15 99 1019.6
20260904144123 72 11 2.0 3.0 0.00 1.15 1.15 99 1020.0
20260904143619 72 323 1.0 2.0 0.00 1.15 1.15 99 1019.9
20260904143115 71 233 0.0 1.0 0.00 1.15 1.15 99 1019.3
20260904142611 72 286 1.0 2.0 0.00 1.15 1.15 99 1019.1
20260904142112 72 218 0.0 3.0 0.00 1.15 1.15 99 1018.9
20260904141607 73 357 2.0 3.0 0.00 1.15 1.15 99 1018.8
20260904141102 73 286 0.0 0.0 0.00 1.15 1.15 99 1017.4
20260904140557 72 219 0.0 1.0 0.00 1.15 1.15 99 1017.2
20260904140051 72 228 0.0 0.0 0.00 1.15 1.15 99 1017.1
20260904135551 72 214 0.0 2.0 0.00 1.15 1.15 99 1017.1
20260904135047 72 218 0.0 0.0 0.00 1.15 1.15 99 1017.1
20260904134543 72 215 0.0 0.0 0.00 1.15 1.15 99 1017.1
20260904134036 72 222 0.0 1.0 0.00 1.15 1.15 99 1017.1
20260904133531 72 194 0.0 0.0 0.00 1.15 1.15 99 1017.2
20260904133028 72 206 0.0 1.0 0.00 1.15 1.15 99 1017.2
20260904132527 72 215 0.0 0.0 0.00 1.15 1.15 99 1017.2
20260904132022 72 207 0.0 1.0 0.00 1.15 1.15 99 1017.0
20260904131521 72 215 0.0 2.0 0.00 1.15 1.15 99 1016.7
20260904131017 71 229 0.0 0.0 0.00 1.15 1.15 99 1017.0
20260904130516 71 205 0.0 0.0 0.00 1.15 1.15 99 1016.6
20260904130011 71 212 0.0 0.0 0.00 1.15 1.15 99 1016.8
20260904125508 71 209 0.0 1.0 0.00 1.15 1.15 99 1016.7
20260904125001 71 208 0.0 1.0 0.00 1.15 1.15 99 1016.7
20260904124458 71 209 0.0 0.0 0.00 1.15 1.15 99 1016.8
20260904123954 71 182 0.0 0.0 0.00 1.15 1.15 99 1017.2
20260904123448 71 200 0.0 0.0 0.00 1.15 1.15 99 1017.2
20260904122944 71 207 0.0 2.0 0.00 1.15 1.15 99 1017.3
20260904122443 71 147 2.0 2.0 0.07 1.15 1.15 99 1017.6
20260904121937 71 318 3.0 3.0 0.14 1.15 1.15 99 1018.3
20260904121434 71 331 3.0 3.0 0.07 1.13 1.13 99 1018.4
20260904120930 71 237 0.0 3.0 0.00 1.12 1.12 99 1018.4
20260904120426 70 15 5.0 10.0 0.00 1.12 1.12 99 1018.7
20260904115920 70 290 3.0 6.0 0.00 1.12 1.12 99 1018.7
20260904115416 70 232 0.0 0.0 0.00 1.12 1.12 99 1017.1
20260904114910 70 218 0.0 0.0 0.00 1.12 1.12 99 1016.9
20260904114405 70 215 0.0 0.0 0.00 1.12 1.12 99 1016.9
20260904113901 70 220 0.0 0.0 0.00 1.12 1.12 99 1016.9
20260904113400 70 220 0.0 0.0 0.00 1.12 1.12 99 1016.8
20260904112854 70 205 0.0 0.0 0.00 1.12 1.12 99 1016.6
20260904112350 70 197 0.0 0.0 0.00 1.12 1.12 99 1016.6
20260904111845 70 257 0.0 0.0 0.00 1.12 1.12 99 1016.5
20260904111341 70 220 0.0 0.0 0.00 1.12 1.12 99 1016.3
20260904110836 70 163 0.0 1.0 0.00 1.12 1.12 99 1016.2
20260904110335 70 159 0.0 0.0 0.00 1.12 1.12 99 1016.2
20260904105830 70 213 0.0 0.0 0.00 1.12 1.12 99 1016.4
20260904105325 70 210 0.0 2.0 0.00 1.12 1.12 99 1016.2
20260904104820 70 77 3.0 6.0 0.00 1.12 1.12 99 1016.2
20260904104316 71 110 1.0 2.0 0.00 1.12 1.12 99 1016.6
20260904103813 71 97 3.0 3.0 0.14 1.12 1.12 99 1016.4
20260904103312 70 58 1.0 1.0 0.92 1.12 1.12 99 1016.3
20260904102808 70 98 0.0 3.0 1.84 1.09 1.09 99 1016.2
20260904102306 69 10 0.0 1.0 1.84 0.96 0.96 99 1016.6
20260904101759 69 349 1.0 5.0 1.70 0.73 0.73 99 1016.4
20260904101255 69 97 3.0 6.0 1.21 0.60 0.60 99 1016.6
20260904100751 68 96 1.0 3.0 0.64 0.45 0.45 99 1016.5
20260904100247 68 64 2.0 3.0 0.71 0.40 0.40 99 1016.5
20260904095746 68 287 2.0 5.0 1.35 0.33 0.33 99 1017.1
20260904095241 68 261 1.0 2.0 1.35 0.24 0.24 99 1017.4
20260904094736 70 301 4.0 6.0 0.35 0.07 0.07 99 1017.5
20260904094231 70 236 4.0 7.0 0.00 0.01 0.01 99 1017.0
20260904093727 70 266 1.0 2.0 0.00 0.01 0.01 99 1017.0
20260904093227 70 282 0.0 1.0 0.00 0.01 0.01 99 1016.7
20260904092723 70 199 0.0 0.0 0.00 0.01 0.01 99 1016.3
20260904092219 70 74 1.0 2.0 0.00 0.01 0.01 99 1015.7
20260904091715 70 263 0.0 0.0 0.00 0.01 0.01 99 1016.1
20260904091209 70 198 1.0 1.0 0.00 0.01 0.01 99 1016.1
20260904090705 70 166 0.0 1.0 0.00 0.01 0.01 99 1016.1
20260904090201 69 207 0.0 0.0 0.07 0.01 0.01 99 1016.0
20260904085656 69 212 0.0 0.0 0.07 0.01 0.01 99 1016.4
20260904085156 69 205 0.0 0.0 0.00 0.00 0.00 99 1016.5
20260904084651 69 205 0.0 0.0 0.00 0.00 0.00 99 1016.3
20260904084147 69 194 0.0 0.0 0.00 0.00 0.00 99 1016.5
20260904083643 69 201 0.0 0.0 0.00 0.00 0.00 99 1016.4
20260904083139 69 159 0.0 1.0 0.00 0.00 0.00 99 1016.2
20260904082633 69 48 1.0 2.0 0.00 0.00 0.00 99 1016.3
20260904082129 69 75 2.0 2.0 0.00 0.00 0.00 99 1016.4
20260904081625 69 172 0.0 0.0 0.00 0.00 0.00 99 1016.3
20260904081120 69 156 0.0 0.0 0.00 0.00 0.00 99 1016.2
20260904080615 69 159 0.0 1.0 0.00 0.00 0.00 99 1016.2
20260904080112 69 142 0.0 0.0 0.00 0.00 0.00 99 1016.3
20260904075607 69 74 0.0 0.0 0.00 0.00 0.00 99 1016.4
20260904075107 69 90 0.0 0.0 0.00 0.00 0.00 99 1016.1
20260904074607 69 143 0.0 0.0 0.00 0.00 0.00 99 1016.2
20260904074101 69 167 0.0 1.0 0.00 0.00 0.00 99 1016.2
20260904073556 69 91 0.0 0.0 0.00 0.00 0.00 99 1016.4
20260904073053 69 162 0.0 0.0 0.00 0.00 0.00 99 1016.3
20260904072548 69 215 0.0 0.0 0.00 0.00 0.00 99 1016.3
20260904072043 69 215 0.0 0.0 0.00 0.00 0.00 99 1016.3
20260904071539 69 220 0.0 0.0 0.00 0.00 0.00 99 1016.5
20260904071033 69 220 0.0 0.0 0.00 0.00 0.00 99 1016.5
20260904070532 69 220 0.0 0.0 0.00 0.00 0.00 99 1016.7
20260904070028 69 215 0.0 0.0 0.00 0.00 0.00 99 1016.6
20260904065523 69 213 0.0 0.0 0.00 0.00 0.00 99 1016.5
20260904065019 69 197 0.0 0.0 0.00 0.00 0.00 99 1016.6
20260904064515 69 231 0.0 0.0 0.00 0.00 0.00 99 1016.8
20260904064015 69 230 0.0 0.0 0.00 0.00 0.00 99 1016.6
20260904063511 69 230 0.0 0.0 0.00 0.00 0.00 99 1016.6
20260904063006 69 230 0.0 0.0 0.00 0.00 0.00 99 1016.5
20260904062502 69 235 0.0 0.0 0.00 0.00 0.00 99 1016.7
20260904061958 69 233 0.0 0.0 0.00 0.00 0.00 99 1016.8
20260904061454 69 230 0.0 0.0 0.00 0.00 0.00 99 1016.8
20260904060950 69 227 0.0 0.0 0.00 0.00 0.00 99 1016.7
20260904060445 69 227 0.0 0.0 0.00 0.00 0.00 99 1016.7
20260904055941 69 232 0.0 0.0 0.00 0.00 0.00 99 1016.8
20260904055436 69 234 0.0 0.0 0.00 0.00 0.00 99 1017.0
20260904054932 69 236 0.0 0.0 0.00 0.00 0.00 99 1017.0
20260904054427 70 243 0.0 0.0 0.00 0.00 0.00 99 1017.0
20260904053923 69 232 0.0 0.0 0.00 0.00 0.00 99 1016.9
20260904053422 69 219 0.0 2.0 0.00 0.00 0.00 99 1016.8
20260904052918 70 220 0.0 0.0 0.00 0.00 0.00 99 1016.8
20260904052414 69 210 0.0 0.0 0.00 0.00 0.00 99 1016.8
20260904051910 69 242 0.0 0.0 0.00 0.00 0.00 99 1017.1
20260904051406 69 231 0.0 0.0 0.00 0.00 0.00 99 1017.1
20260904050900 69 231 0.0 0.0 0.00 0.00 0.00 99 1017.1
20260904050357 69 226 0.0 0.0 0.00 0.00 0.00 99 1017.2
20260904045856 69 225 0.0 0.0 0.00 0.00 0.00 99 1016.9
20260904045352 69 226 0.0 0.0 0.00 0.00 0.00 99 1016.9
20260904044851 69 225 0.0 0.0 0.00 0.00 0.00 99 1016.9
20260904044348 69 222 0.0 0.0 0.00 0.00 0.00 99 1016.9
20260904043844 69 221 0.0 1.0 0.00 0.00 0.00 99 1017.0
20260904043340 69 222 0.0 0.0 0.00 0.00 0.00 99 1017.1
20260904042835 70 231 0.0 0.0 0.00 0.00 0.00 99 1017.0
20260904042331 70 238 0.0 0.0 0.00 0.00 0.00 99 1016.9
20260904041826 70 238 0.0 0.0 0.00 0.00 0.00 99 1016.7
20260904041322 70 230 0.0 0.0 0.00 0.00 0.00 99 1016.9
20260904040818 70 225 0.0 0.0 0.00 0.00 0.00 99 1016.6
20260904040313 70 219 0.0 0.0 0.00 0.00 0.00 99 1016.8
20260904035809 70 215 0.0 0.0 0.00 0.70 0.70 99 1016.6
20260904035306 70 215 0.0 0.0 0.00 0.70 0.70 99 1016.6
20260904034803 70 216 0.0 0.0 0.00 0.70 0.70 99 1016.8
20260904034259 70 215 0.0 0.0 0.00 0.70 0.70 99 1016.9
20260904033755 70 222 0.0 0.0 0.00 0.70 0.70 99 1017.0
20260904033251 70 248 0.0 0.0 0.00 0.70 0.70 99 1016.9
20260904032747 70 12 0.0 1.0 0.00 0.70 0.70 99 1016.9
20260904032246 70 192 0.0 0.0 0.00 0.70 0.70 99 1017.1
20260904031741 70 326 0.0 1.0 0.00 0.70 0.70 99 1016.7
20260904031237 70 249 0.0 0.0 0.00 0.70 0.70 99 1016.8
20260904030732 70 242 0.0 0.0 0.00 0.70 0.70 99 1016.7
20260904030227 70 221 0.0 0.0 0.00 0.70 0.70 99 1016.7
20260904025724 70 55 0.0 1.0 0.00 0.70 0.70 99 1016.8
20260904025218 70 234 0.0 1.0 0.00 0.70 0.70 99 1016.8
20260904024714 70 290 1.0 2.0 0.00 0.70 0.70 99 1016.6
20260904024209 70 290 1.0 2.0 0.00 0.70 0.70 99 1016.6
20260904023706 70 217 0.0 0.0 0.00 0.70 0.70 99 1016.5
20260904023201 70 218 0.0 3.0 0.00 0.70 0.70 99 1016.3
20260904022655 70 218 2.0 2.0 0.00 0.70 0.70 99 1016.2
20260904022152 70 233 0.0 1.0 0.00 0.70 0.70 99 1016.3
20260904021648 70 224 0.0 1.0 0.00 0.70 0.70 99 1016.3
20260904021142 70 216 1.0 2.0 0.00 0.70 0.70 99 1016.2
20260904020638 70 219 3.0 3.0 0.00 0.70 0.70 99 1016.5
20260904020127 70 224 3.0 3.0 0.00 0.70 0.70 99 1016.2
20260904015627 70 244 2.0 2.0 0.00 0.70 0.70 99 1016.3
20260904015125 70 231 1.0 1.0 0.00 0.70 0.70 99 1016.6
20260904014625 71 222 2.0 3.0 0.00 0.70 0.70 98 1016.7
20260904014120 71 245 0.0 0.0 0.00 0.70 0.70 98 1016.3
20260904013617 71 245 0.0 0.0 0.00 0.70 0.70 98 1016.2
20260904013113 71 245 0.0 0.0 0.00 0.70 0.70 98 1016.2
20260904012609 71 226 0.0 0.0 0.00 0.70 0.70 98 1016.4
20260904012108 71 217 0.0 0.0 0.00 0.70 0.70 98 1016.3
20260904011607 71 217 0.0 0.0 0.00 0.70 0.70 98 1016.2
20260904011103 71 210 0.0 0.0 0.00 0.70 0.70 98 1016.2
20260904010558 71 224 0.0 0.0 0.00 0.70 0.70 98 1016.1
20260904010055 71 224 0.0 0.0 0.00 0.70 0.70 98 1015.9
20260904005554 71 222 0.0 0.0 0.00 0.70 0.70 98 1016.1
20260904005050 71 223 1.0 2.0 0.00 0.70 0.70 98 1016.5
20260904004545 71 215 0.0 1.0 0.00 0.70 0.70 98 1016.4
20260904004040 72 252 2.0 2.0 0.00 0.70 0.70 98 1016.3
20260904003536 72 176 0.0 1.0 0.00 0.70 0.70 98 1016.1
20260904003031 72 165 0.0 1.0 0.00 0.70 0.70 97 1016.1
20260904002527 72 201 1.0 2.0 0.00 0.70 0.70 97 1016.4
20260904002027 72 205 1.0 2.0 0.00 0.70 0.70 97 1016.5
20260904001523 72 204 1.0 2.0 0.00 0.70 0.70 97 1016.3
20260904001022 72 216 0.0 0.0 0.00 0.70 0.70 97 1016.3
20260904000521 72 206 1.0 1.0 0.00 0.70 0.70 97 1016.3
20260904000018 72 202 0.0 0.0 0.00 0.70 0.70 97 1016.3
20260903235512 72 216 0.0 0.0 0.00 0.70 0.70 97 1016.3
20260903235007 72 215 0.0 0.0 0.00 0.70 0.70 96 1016.4
20260903234503 72 214 0.0 0.0 0.00 0.70 0.70 96 1016.6
20260903233958 72 62 1.0 1.0 0.00 0.70 0.70 96 1016.4
20260903233454 73 147 0.0 1.0 0.00 0.70 0.70 96 1016.4
20260903232949 73 101 0.0 1.0 0.00 0.70 0.70 96 1016.5
20260903232445 73 156 0.0 0.0 0.00 0.70 0.70 95 1016.2
20260903231944 73 71 0.0 1.0 0.00 0.70 0.70 95 1016.5
20260903231439 73 54 1.0 2.0 0.00 0.70 0.70 95 1016.3
20260903230933 73 67 1.0 2.0 0.00 0.70 0.70 94 1016.2
20260903230430 73 143 2.0 2.0 0.00 0.70 0.70 94 1016.2
20260903225926 73 88 3.0 3.0 0.00 0.70 0.70 94 1016.5
20260903225421 73 101 3.0 3.0 0.00 0.70 0.70 94 1016.7
20260903224918 73 351 2.0 2.0 0.00 0.70 0.70 94 1016.7
20260903224413 73 68 1.0 6.0 0.00 0.70 0.70 93 1016.8
20260903223909 73 98 4.0 5.0 0.00 0.70 0.70 92 1016.6
20260903223408 73 48 6.0 8.0 0.00 0.70 0.70 92 1016.6
20260903222907 72 37 3.0 6.0 0.00 0.70 0.70 95 1016.5
20260903222403 72 98 5.0 7.0 0.00 0.70 0.70 97 1016.5
20260903221857 72 109 1.0 5.0 0.00 0.70 0.70 97 1016.5
20260903221356 72 68 3.0 5.0 0.00 0.70 0.70 97 1017.0
20260903220854 72 213 1.0 5.0 0.00 0.70 0.70 97 1017.7
20260903220348 72 226 3.0 3.0 0.00 0.70 0.70 96 1018.1
20260903215847 71 111 1.0 3.0 0.00 0.70 0.70 96 1017.2
20260903215344 71 92 0.0 3.0 0.00 0.70 0.70 97 1016.9
20260903214842 71 65 3.0 6.0 0.00 0.70 0.70 97 1016.4
20260903214338 71 64 2.0 2.0 0.00 0.70 0.70 98 1016.8
20260903213831 71 285 2.0 2.0 0.07 0.70 0.70 98 1017.2
20260903213321 71 240 0.0 2.0 0.57 0.70 0.70 97 1017.3
20260903212817 71 236 1.0 2.0 1.63 0.69 0.69 97 1017.5
20260903212313 71 280 4.0 8.0 2.06 0.56 0.56 97 1018.0
20260903211813 72 245 3.0 9.0 1.13 0.33 0.33 96 1017.3
20260903211309 72 198 1.0 8.0 0.64 0.19 0.19 96 1016.6
20260903210805 73 45 4.0 6.0 0.78 0.14 0.14 95 1017.1
20260903210300 73 40 5.0 13.0 0.42 0.07 0.07 94 1016.9
20260903205759 75 339 3.0 13.0 0.07 0.01 0.01 91 1017.4
20260903205259 83 296 11.0 25.0 0.00 0.00 0.00 81 1016.3
20260903204754 87 257 4.0 7.0 0.00 0.00 0.00 72 1015.1
20260903204250 87 231 5.0 7.0 0.00 0.00 0.00 72 1013.9
20260903203745 88 247 5.0 8.0 0.00 0.00 0.00 71 1013.6
20260903203241 88 236 6.0 8.0 0.00 0.00 0.00 71 1013.4
20260903202735 88 218 6.0 8.0 0.00 0.00 0.00 72 1013.4
20260903202232 89 233 7.0 8.0 0.00 0.00 0.00 71 1013.8
20260903201730 89 207 4.0 10.0 0.00 0.00 0.00 70 1013.5
20260903201226 90 203 7.0 10.0 0.00 0.00 0.00 69 1013.4
20260903200725 91 217 9.0 9.0 0.00 0.00 0.00 67 1013.5
20260903200221 91 237 5.0 7.0 0.00 0.00 0.00 66 1013.5
20260903195716 91 219 5.0 8.0 0.00 0.00 0.00 65 1013.4
20260903195212 92 241 3.0 9.0 0.00 0.00 0.00 67 1013.6
20260903194712 91 224 6.0 8.0 0.00 0.00 0.00 65 1013.3
20260903194208 91 234 4.0 6.0 0.00 0.00 0.00 67 1013.4
20260903193708 92 241 6.0 11.0 0.00 0.00 0.00 63 1013.8
20260903193203 93 225 6.0 9.0 0.00 0.00 0.00 64 1014.0
20260903192659 93 236 5.0 7.0 0.00 0.00 0.00 64 1014.3
20260903192154 94 231 6.0 8.0 0.00 0.00 0.00 61 1014.5
20260903191651 93 235 5.0 7.0 0.00 0.00 0.00 63 1014.8
20260903191150 92 248 4.0 7.0 0.00 0.00 0.00 65 1014.9
20260903190645 92 250 7.0 9.0 0.00 0.00 0.00 64 1015.0
20260903190139 93 235 9.0 10.0 0.00 0.00 0.00 62 1014.9
20260903185634 93 241 8.0 10.0 0.00 0.00 0.00 62 1015.1
20260903185129 92 238 5.0 7.0 0.00 0.00 0.00 65 1015.5
20260903184626 91 233 7.0 10.0 0.00 0.00 0.00 66 1015.6
20260903184121 92 238 6.0 9.0 0.00 0.00 0.00 65 1015.4
20260903183620 93 239 6.0 8.0 0.00 0.00 0.00 63 1015.2
20260903183115 93 239 7.0 11.0 0.00 0.00 0.00 62 1015.5
20260903182614 93 234 8.0 9.0 0.00 0.00 0.00 61 1015.5
20260903182110 93 246 7.0 8.0 0.00 0.00 0.00 60 1015.4
20260903181608 94 227 5.0 6.0 0.00 0.00 0.00 59 1015.6
20260903181103 93 237 9.0 11.0 0.00 0.00 0.00 62 1015.5
20260903180558 93 235 8.0 11.0 0.00 0.00 0.00 63 1015.5
20260903180053 93 262 8.0 11.0 0.00 0.00 0.00 61 1015.5
20260903175552 93 237 6.0 9.0 0.00 0.00 0.00 61 1015.4
20260903175051 93 228 7.0 8.0 0.00 0.00 0.00 65 1015.6
20260903174546 92 205 6.0 9.0 0.00 0.00 0.00 66 1015.5
20260903174041 92 213 5.0 10.0 0.00 0.00 0.00 66 1015.7
20260903173536 92 205 5.0 9.0 0.00 0.00 0.00 66 1015.8
20260903173033 91 199 7.0 13.0 0.00 0.00 0.00 66 1015.8
20260903172527 91 228 6.0 9.0 0.00 0.00 0.00 67 1015.9
20260903172022 92 219 5.0 8.0 0.00 0.00 0.00 66 1016.1
20260903171517 91 179 5.0 10.0 0.00 0.00 0.00 70 1016.0
20260903171013 91 240 5.0 7.0 0.00 0.00 0.00 68 1016.2
20260903170512 91 209 5.0 9.0 0.00 0.00 0.00 69 1016.1
20260903170007 90 232 4.0 10.0 0.00 0.00 0.00 68 1016.1
20260903165504 91 230 6.0 11.0 0.00 0.00 0.00 68 1016.2
20260903164954 90 238 5.0 7.0 0.00 0.00 0.00 68 1016.3
20260903164449 91 208 6.0 8.0 0.00 0.00 0.00 67 1016.1
20260903163949 91 208 8.0 9.0 0.00 0.00 0.00 67 1016.2
20260903163445 90 217 5.0 6.0 0.00 0.00 0.00 69 1016.4
20260903162941 90 225 8.0 9.0 0.00 0.00 0.00 70 1016.3
20260903162437 90 251 5.0 7.0 0.00 0.00 0.00 71 1016.5
20260903161932 90 241 5.0 8.0 0.00 0.00 0.00 70 1016.5
20260903161428 89 224 4.0 6.0 0.00 0.00 0.00 72 1016.6
20260903160924 89 240 4.0 6.0 0.00 0.00 0.00 72 1016.5
20260903160422 89 228 5.0 8.0 0.00 0.00 0.00 71 1016.6